Etusivu
METAR-TAF:

METAR-TAF

Lentoasemat :

Sanderson Field Airport

Shelton, Washington, Yhdysvallat

Leveyspiiri: 47-14-17N, Pituuspiiri: 123-08-27W, korkeus merenpinnasta: 82 m

Tämänhetkinen sää

Tämä raportti tehtiin 58 minuuttia sitten, kello 22.53 UTC
Tuuli 6 kn lännestä/lounaasta
Lämpötila 14°C
Kosteus 58%
Ilmanpaine 1027 hPa
Näkyvyys: 16.1 km
selkeää

METAR: KSHN 272253Z AUTO 24006KT 10SM CLR 14/06 A3032 RMK AO2 SLP270 T01440061

Aika: 16:51 (23:51 UTC)


TAF: puuttuu

Säähavainnot ja -ennusteet yli 4000 lentoasemalta (METAR- ja TAF-raportit).

Käytössä olevat sääasemat on merkitty karttaan keltaisilla ja punaisilla pisteillä.

Aseta hiiri pisteen päälle nähdäksesi sääaseman nimen.

Klikkaa sitten nähdäksesi säähavainnot ja -ennusteet.

Kartan vaihtaminen: klikkaa mustalla rastilla varustettuja vihreitä pisteitä, niin voit zoomata sisään; viivalla varustettua vihreää pistettä, niin voit zoomata ulos tai vihreitä nuolia, niin pääset viereisille kartoille.


METAR-TAF: